| time (UTC) | temp F | wind direction | speed knots | gust knots | rain 1hr in | rain 24hr in | rain mn in | humidity % | barometer mb |
| 20260509101658 | 71 | 291 | 0.0 | 0.0 | 0.00 | 0.00 | 0.00 | 94 | 1010.4 |
| 20260509100056 | 71 | 291 | 0.0 | 1.7 | 0.00 | 0.00 | 0.00 | 94 | 1010.2 |
| 20260509094601 | 71 | 36 | 0.0 | 0.0 | 0.00 | 0.02 | 0.00 | 94 | 1009.8 |
| 20260509093058 | 71 | 311 | 0.0 | 0.0 | 0.00 | 0.02 | 0.00 | 94 | 1009.8 |
| 20260509091557 | 71 | 164 | 0.0 | 0.0 | 0.00 | 0.02 | 0.00 | 94 | 1009.0 |
| 20260509090057 | 71 | 164 | 0.0 | 0.0 | 0.00 | 0.02 | 0.00 | 93 | 1008.9 |
| 20260509084602 | 71 | 164 | 0.0 | 0.0 | 0.00 | 0.02 | 0.00 | 93 | 1009.0 |
| 20260509083052 | 72 | 164 | 0.0 | 0.0 | 0.00 | 0.02 | 0.00 | 92 | 1009.4 |
| 20260509081557 | 72 | 164 | 0.0 | 0.0 | 0.00 | 0.02 | 0.00 | 93 | 1009.3 |
| 20260509080057 | 72 | 164 | 0.0 | 0.0 | 0.00 | 0.02 | 0.00 | 92 | 1009.4 |
| 20260509074547 | 72 | 164 | 0.0 | 0.0 | 0.00 | 0.02 | 0.00 | 93 | 1009.8 |
| 20260509073046 | 72 | 164 | 0.0 | 0.0 | 0.00 | 0.02 | 0.00 | 93 | 1009.8 |
| 20260509071538 | 72 | 164 | 0.0 | 0.0 | 0.00 | 0.02 | 0.00 | 93 | 1010.1 |
| 20260509070033 | 72 | 187 | 0.0 | 0.0 | 0.00 | 0.02 | 0.00 | 93 | 1009.8 |
| 20260509064529 | 72 | 170 | 0.0 | 0.0 | 0.00 | 0.02 | 0.00 | 93 | 1009.9 |
| 20260509063033 | 72 | 150 | 0.0 | 2.6 | 0.00 | 0.02 | 0.00 | 93 | 1009.9 |
| 20260509061522 | 72 | 165 | 0.9 | 2.6 | 0.00 | 0.02 | 0.00 | 93 | 1009.8 |
| 20260509060017 | 72 | 111 | 1.7 | 2.6 | 0.00 | 0.02 | 0.00 | 93 | 1010.0 |
| 20260509054512 | 72 | 101 | 0.0 | 2.6 | 0.00 | 0.02 | 0.00 | 92 | 1009.6 |
| 20260509053012 | 72 | 119 | 0.9 | 2.6 | 0.00 | 0.02 | 0.00 | 92 | 1008.8 |
| 20260509051506 | 71 | 99 | 0.0 | 1.7 | 0.00 | 0.02 | 0.00 | 92 | 1008.6 |
| 20260509050100 | 72 | 65 | 0.9 | 2.6 | 0.00 | 0.02 | 0.00 | 91 | 1008.4 |
| 20260509050003 | 72 | 87 | 0.0 | 1.7 | 0.00 | 0.02 | 0.00 | 91 | 1008.4 |
| 20260509044616 | 72 | 118 | 0.0 | 2.6 | 0.00 | 0.02 | 0.02 | 91 | 1008.4 |
| 20260509043058 | 72 | 119 | 0.9 | 1.7 | 0.00 | 0.02 | 0.02 | 91 | 1008.8 |
| 20260509041559 | 72 | 144 | 0.0 | 1.7 | 0.00 | 0.02 | 0.02 | 91 | 1009.0 |
| 20260509040057 | 71 | 135 | 0.0 | 0.0 | 0.00 | 0.02 | 0.02 | 91 | 1008.9 |
| 20260509034557 | 71 | 119 | 0.0 | 0.0 | 0.00 | 0.02 | 0.02 | 91 | 1009.0 |
| 20260509033057 | 71 | 119 | 0.0 | 0.0 | 0.00 | 0.02 | 0.02 | 91 | 1008.8 |
| 20260509031608 | 71 | 119 | 0.0 | 0.9 | 0.00 | 0.02 | 0.02 | 90 | 1008.7 |
| 20260509030057 | 72 | 117 | 0.0 | 2.6 | 0.00 | 0.02 | 0.02 | 90 | 1008.4 |
| 20260509024557 | 72 | 144 | 0.9 | 3.5 | 0.00 | 0.02 | 0.02 | 89 | 1008.3 |
| 20260509023106 | 72 | 125 | 0.9 | 3.5 | 0.00 | 0.02 | 0.02 | 89 | 1008.2 |
| 20260509021554 | 72 | 90 | 0.0 | 2.6 | 0.00 | 0.02 | 0.02 | 88 | 1008.2 |
| 20260509020054 | 73 | 123 | 0.0 | 2.6 | 0.00 | 0.02 | 0.02 | 87 | 1008.0 |
| 20260509014552 | 73 | 124 | 0.0 | 2.6 | 0.00 | 0.02 | 0.02 | 87 | 1007.8 |
| 20260509013052 | 74 | 86 | 0.0 | 3.5 | 0.00 | 0.02 | 0.02 | 86 | 1007.7 |
| 20260509011552 | 74 | 28 | 0.0 | 3.5 | 0.00 | 0.02 | 0.02 | 85 | 1007.7 |
| 20260509010052 | 74 | 131 | 2.6 | 7.0 | 0.00 | 0.02 | 0.02 | 85 | 1007.6 |
| 20260509004553 | 75 | 86 | 0.9 | 4.3 | 0.00 | 0.02 | 0.02 | 84 | 1007.7 |
| 20260509003050 | 75 | 88 | 0.9 | 5.2 | 0.00 | 0.02 | 0.02 | 83 | 1007.7 |
| 20260509001547 | 75 | 86 | 0.9 | 6.1 | 0.00 | 0.02 | 0.02 | 83 | 1007.7 |
| 20260509000047 | 75 | 98 | 0.9 | 4.3 | 0.00 | 0.02 | 0.02 | 83 | 1007.8 |
| 20260508234550 | 76 | 76 | 0.0 | 3.5 | 0.00 | 0.02 | 0.02 | 82 | 1007.9 |
| 20260508233050 | 76 | 54 | 0.9 | 4.3 | 0.00 | 0.02 | 0.02 | 81 | 1007.9 |
| 20260508231544 | 76 | 130 | 2.6 | 6.1 | 0.00 | 0.02 | 0.02 | 80 | 1007.8 |
| 20260508230107 | 77 | 40 | 0.9 | 4.3 | 0.00 | 0.02 | 0.02 | 79 | 1007.8 |
| 20260508224549 | 77 | 81 | 2.6 | 7.0 | 0.00 | 0.02 | 0.02 | 79 | 1007.8 |
| 20260508223041 | 77 | 136 | 2.6 | 7.0 | 0.00 | 0.02 | 0.02 | 78 | 1007.9 |
| 20260508221540 | 77 | 120 | 1.7 | 7.0 | 0.00 | 0.02 | 0.02 | 77 | 1007.9 |
| 20260508220108 | 77 | 108 | 1.7 | 6.1 | 0.00 | 0.02 | 0.02 | 76 | 1008.1 |
| 20260508214538 | 78 | 96 | 2.6 | 6.1 | 0.00 | 0.02 | 0.02 | 75 | 1008.3 |
| 20260508213037 | 78 | 107 | 2.6 | 7.0 | 0.00 | 0.02 | 0.02 | 75 | 1008.2 |
| 20260508211540 | 77 | 145 | 2.6 | 7.8 | 0.00 | 0.02 | 0.02 | 76 | 1008.5 |
| 20260508210033 | 77 | 39 | 1.7 | 6.1 | 0.00 | 0.02 | 0.02 | 77 | 1008.8 |
| 20260508204528 | 76 | 52 | 1.7 | 7.8 | 0.00 | 0.02 | 0.02 | 76 | 1009.1 |
| 20260508203023 | 76 | 5 | 0.9 | 7.8 | 0.00 | 0.02 | 0.02 | 77 | 1009.4 |
| 20260508201531 | 76 | 137 | 3.5 | 8.7 | 0.00 | 0.02 | 0.02 | 75 | 1009.6 |
| 20260508200018 | 76 | 97 | 2.6 | 7.0 | 0.00 | 0.02 | 0.02 | 77 | 1009.7 |
| 20260508194514 | 75 | 123 | 0.9 | 5.2 | 0.00 | 0.02 | 0.02 | 78 | 1009.9 |
| 20260508193010 | 74 | 11 | 1.7 | 7.0 | 0.00 | 0.02 | 0.02 | 76 | 1010.2 |
| 20260508191515 | 74 | 5 | 1.7 | 7.8 | 0.00 | 0.02 | 0.02 | 77 | 1010.2 |
| 20260508190004 | 74 | 99 | 1.7 | 6.1 | 0.00 | 0.02 | 0.02 | 78 | 1010.4 |
| 20260508184601 | 73 | 9 | 1.7 | 3.5 | 0.00 | 0.02 | 0.02 | 78 | 1010.7 |
| 20260508184500 | 73 | 5 | 1.7 | 3.5 | 0.00 | 0.02 | 0.02 | 79 | 1010.7 |
| 20260508183059 | 72 | 74 | 0.9 | 3.5 | 0.00 | 0.02 | 0.02 | 80 | 1010.9 |
| 20260508181607 | 72 | 36 | 0.9 | 3.5 | 0.00 | 0.02 | 0.02 | 80 | 1011.1 |
| 20260508180104 | 72 | 118 | 1.7 | 4.3 | 0.00 | 0.02 | 0.02 | 79 | 1011.2 |
| 20260508174602 | 71 | 321 | 0.9 | 4.3 | 0.00 | 0.02 | 0.02 | 79 | 1011.3 |
| 20260508173046 | 70 | 327 | 1.7 | 5.2 | 0.00 | 0.02 | 0.02 | 81 | 1011.4 |
| 20260508171543 | 70 | 126 | 0.9 | 4.3 | 0.00 | 0.02 | 0.02 | 81 | 1011.7 |
| 20260508170039 | 68 | 46 | 0.0 | 2.6 | 0.00 | 0.02 | 0.02 | 82 | 1012.1 |
| 20260508164536 | 68 | 104 | 0.0 | 1.7 | 0.00 | 0.02 | 0.02 | 82 | 1012.4 |
| 20260508163038 | 67 | 84 | 0.0 | 1.7 | 0.00 | 0.02 | 0.02 | 83 | 1012.4 |
| 20260508161535 | 67 | 144 | 0.0 | 1.7 | 0.00 | 0.02 | 0.02 | 82 | 1012.6 |
| 20260508160031 | 67 | 117 | 0.9 | 3.5 | 0.00 | 0.02 | 0.02 | 82 | 1012.7 |
| 20260508154529 | 67 | 130 | 0.9 | 2.6 | 0.00 | 0.02 | 0.02 | 83 | 1012.9 |
| 20260508153027 | 66 | 159 | 0.0 | 3.5 | 0.00 | 0.02 | 0.02 | 84 | 1012.9 |
| 20260508151527 | 66 | 115 | 1.7 | 3.5 | 0.00 | 0.02 | 0.02 | 84 | 1012.8 |
| 20260508150026 | 65 | 110 | 0.9 | 4.3 | 0.00 | 0.02 | 0.02 | 84 | 1012.9 |
| 20260508144521 | 65 | 101 | 0.9 | 3.5 | 0.00 | 0.02 | 0.02 | 86 | 1012.8 |
| 20260508143024 | 64 | 93 | 0.0 | 3.5 | 0.00 | 0.02 | 0.02 | 86 | 1012.8 |
| 20260508141515 | 64 | 112 | 0.0 | 2.6 | 0.00 | 0.02 | 0.02 | 87 | 1012.9 |
| 20260508140024 | 63 | 103 | 0.9 | 3.5 | 0.00 | 0.02 | 0.02 | 90 | 1012.9 |
| 20260508134515 | 61 | 360 | 0.0 | 0.9 | 0.00 | 0.02 | 0.02 | 92 | 1012.8 |
| 20260508133008 | 61 | 146 | 0.0 | 2.6 | 0.00 | 0.02 | 0.02 | 92 | 1013.2 |
| 20260508131505 | 60 | 134 | 0.0 | 0.9 | 0.00 | 0.02 | 0.02 | 92 | 1013.4 |
| 20260508130006 | 60 | 59 | 0.0 | 0.9 | 0.00 | 0.02 | 0.02 | 92 | 1013.1 |
| 20260508124509 | 59 | 112 | 0.0 | 0.0 | 0.00 | 0.02 | 0.02 | 92 | 1013.2 |
| 20260508123002 | 59 | 112 | 0.0 | 0.0 | 0.00 | 0.02 | 0.02 | 92 | 1013.3 |
| 20260508121601 | 59 | 115 | 0.0 | 0.0 | 0.00 | 0.02 | 0.02 | 92 | 1013.4 |
| 20260508120100 | 59 | 114 | 0.0 | 0.0 | 0.00 | 0.02 | 0.02 | 92 | 1013.5 |
| 20260508114559 | 59 | 355 | 0.0 | 0.0 | 0.00 | 0.02 | 0.02 | 92 | 1013.8 |
| 20260508113105 | 59 | 355 | 0.0 | 0.0 | 0.00 | 0.02 | 0.02 | 92 | 1014.0 |
| 20260508111559 | 59 | 355 | 0.0 | 0.0 | 0.00 | 0.02 | 0.02 | 92 | 1013.7 |
| 20260508110058 | 59 | 328 | 0.0 | 0.9 | 0.00 | 0.02 | 0.02 | 92 | 1013.6 |
| 20260508104601 | 59 | 312 | 0.0 | 1.7 | 0.01 | 0.02 | 0.02 | 91 | 1013.5 |
| 20260508103057 | 59 | 312 | 0.0 | 0.9 | 0.02 | 0.02 | 0.02 | 91 | 1014.0 |